User: anonymous
Location: Caltech
(34.1382°N, 118.1253°W)
Time: 10:52:53
(UTC-07:00)
Language:

SO-50 - Orbit

View from above orbital plane
View from above orbital plane
View from above satellite
View from above satellite

Ground track
Ground track

The orbit data is extracted from the following two-line orbital elements,

1 27607U 02058C   14262.12963811  .00000824  00000-0  14296-3 0  5044
2 27607 064.5558 305.9440 0059232 345.3517 014.5865 14.73910657631328
Epoch (UTC): 19 September 2014 03:06:40
Eccentricity: 0.0059232
inclination: 64.5558°
perigee height: 607 km
apogee height: 690 km
right ascension of ascending node: 305.9440°
argument of perigee: 345.3517°
revolutions per day: 14.73910657
mean anomaly at epoch: 14.5865°
orbit number at epoch: 63132

The dashed part of the orbit path shows where the satellite is in the earth's shadow,  

DLR